BWA439 TGPY-TTPP

Flight info

Callsign BWA439
Flight time 0h 28m
Altitude 12000
Route GND A324 DUKLA DCT NAPKO DCT LEXOR DCT TALUS
Aircraft AT76/M-MSDFGRSB1/S

Departure

Time 2026-04-27 10:04
Airport Maurice Bishop International Airport (TGPY)

Arrival

Time 2026-04-27 10:33
Airport Piarco International Airport (TTPP)
Time Latitude Longitude Altitude Speed Heading
2026-04-27 09:12 12.00661 -61.78532 44 ft 0 kts 357°
2026-04-27 09:59 12.00662 -61.78532 44 ft 0 kts 355°
2026-04-27 09:59 12.00652 -61.78542 42 ft 7 kts 204°
2026-04-27 10:00 12.00596 -61.78576 42 ft 11 kts 211°
2026-04-27 10:00 12.00519 -61.78597 39 ft 3 kts 178°
2026-04-27 10:00 12.00452 -61.78596 38 ft 18 kts 180°
2026-04-27 10:00 12.00404 -61.78641 38 ft 7 kts 279°
2026-04-27 10:01 12.00408 -61.78756 38 ft 35 kts 273°
2026-04-27 10:01 12.00409 -61.78988 37 ft 29 kts 269°
2026-04-27 10:01 12.00410 -61.79176 36 ft 24 kts 271°
2026-04-27 10:01 12.00411 -61.79339 34 ft 22 kts 270°
2026-04-27 10:02 12.00412 -61.79491 33 ft 21 kts 270°
2026-04-27 10:02 12.00413 -61.79635 32 ft 20 kts 270°
2026-04-27 10:02 12.00416 -61.79770 31 ft 17 kts 280°
2026-04-27 10:02 12.00458 -61.79848 30 ft 7 kts 250°
2026-04-27 10:03 12.00418 -61.79842 30 ft 6 kts 136°
2026-04-27 10:03 12.00413 -61.79814 31 ft 0 kts 89°
2026-04-27 10:03 12.00413 -61.79726 31 ft 45 kts 90°
2026-04-27 10:04 12.00408 -61.79161 37 ft 110 kts 90°
2026-04-27 10:04 12.00408 -61.78323 545 ft 119 kts 92°
2026-04-27 10:04 12.00391 -61.77482 1239 ft 118 kts 94°
2026-04-27 10:04 12.00077 -61.76676 1396 ft 143 kts 137°
2026-04-27 10:05 11.99052 -61.76396 1606 ft 169 kts 182°
2026-04-27 10:05 11.97852 -61.76525 2008 ft 175 kts 180°
2026-04-27 10:05 11.96630 -61.76587 2472 ft 176 kts 177°
2026-04-27 10:05 11.95405 -61.76540 2949 ft 175 kts 167°
2026-04-27 10:06 11.94208 -61.76298 3396 ft 176 kts 162°
2026-04-27 10:06 11.93016 -61.76015 3843 ft 177 kts 162°
2026-04-27 10:06 11.91822 -61.75732 4275 ft 179 kts 162°
2026-04-27 10:06 11.90596 -61.75465 4697 ft 181 kts 164°
2026-04-27 10:07 11.89352 -61.75215 5115 ft 183 kts 165°
2026-04-27 10:07 11.88094 -61.74969 5515 ft 185 kts 165°
2026-04-27 10:07 11.86826 -61.74722 5899 ft 186 kts 165°
2026-04-27 10:07 11.85547 -61.74477 6277 ft 188 kts 166°
2026-04-27 10:08 11.84270 -61.74232 6654 ft 189 kts 166°
2026-04-27 10:08 11.82972 -61.73983 7018 ft 190 kts 166°
2026-04-27 10:08 11.81665 -61.73730 7382 ft 192 kts 166°
2026-04-27 10:08 11.80351 -61.73479 7745 ft 193 kts 166°
2026-04-27 10:09 11.79030 -61.73223 8079 ft 194 kts 166°
2026-04-27 10:09 11.77702 -61.72967 8406 ft 195 kts 166°
2026-04-27 10:09 11.76365 -61.72709 8730 ft 196 kts 166°
2026-04-27 10:09 11.75019 -61.72450 9053 ft 197 kts 166°
2026-04-27 10:10 11.73669 -61.72191 9368 ft 198 kts 166°
2026-04-27 10:10 11.72316 -61.71931 9688 ft 198 kts 166°
2026-04-27 10:10 11.71418 -61.71759 9898 ft 198 kts 166°
2026-04-27 10:10 11.69621 -61.71415 10310 ft 198 kts 166°
2026-04-27 10:11 11.68260 -61.71152 10616 ft 199 kts 166°
2026-04-27 10:11 11.66898 -61.70891 10937 ft 199 kts 166°
2026-04-27 10:11 11.65534 -61.70630 11258 ft 200 kts 166°
2026-04-27 10:11 11.64625 -61.70456 11464 ft 200 kts 166°
2026-04-27 10:12 11.63253 -61.70191 11773 ft 200 kts 166°
2026-04-27 10:12 11.61851 -61.69923 11908 ft 210 kts 166°
2026-04-27 10:12 11.60378 -61.69640 11950 ft 220 kts 167°
2026-04-27 10:12 11.58842 -61.69344 11962 ft 229 kts 167°
2026-04-27 10:13 11.57248 -61.69039 11983 ft 236 kts 167°
2026-04-27 10:13 11.55638 -61.68730 11987 ft 241 kts 167°
2026-04-27 10:13 11.53977 -61.68413 11984 ft 243 kts 167°
2026-04-27 10:13 11.52303 -61.68091 11982 ft 246 kts 167°
2026-04-27 10:14 11.50614 -61.67768 11991 ft 248 kts 167°
2026-04-27 10:14 11.48915 -61.67440 11986 ft 249 kts 167°
2026-04-27 10:14 11.47205 -61.67114 11991 ft 250 kts 167°
2026-04-27 10:14 11.45496 -61.66786 11978 ft 251 kts 167°
2026-04-27 10:15 11.43779 -61.66455 11990 ft 251 kts 167°
2026-04-27 10:15 11.42058 -61.66126 11978 ft 251 kts 167°
2026-04-27 10:15 11.40339 -61.65796 11985 ft 251 kts 167°
2026-04-27 10:15 11.38616 -61.65466 11987 ft 252 kts 167°
2026-04-27 10:16 11.36914 -61.65140 11974 ft 252 kts 167°
2026-04-27 10:16 11.35193 -61.64809 11987 ft 252 kts 167°
2026-04-27 10:16 11.33464 -61.64480 11986 ft 252 kts 167°
2026-04-27 10:16 11.31735 -61.64149 11976 ft 252 kts 167°
2026-04-27 10:17 11.30008 -61.63818 11986 ft 252 kts 167°
2026-04-27 10:17 11.28284 -61.63488 11982 ft 252 kts 167°
2026-04-27 10:17 11.26551 -61.63155 11979 ft 253 kts 167°
2026-04-27 10:17 11.24844 -61.62828 11986 ft 253 kts 167°
2026-04-27 10:18 11.23118 -61.62498 11985 ft 253 kts 167°
2026-04-27 10:18 11.21387 -61.62167 11985 ft 252 kts 167°
2026-04-27 10:18 11.19657 -61.61835 11983 ft 252 kts 167°
2026-04-27 10:18 11.17931 -61.61507 11986 ft 252 kts 167°
2026-04-27 10:19 11.16200 -61.61175 11985 ft 252 kts 167°
2026-04-27 10:19 11.14472 -61.60843 11985 ft 252 kts 167°
2026-04-27 10:19 11.12766 -61.60518 11979 ft 252 kts 167°
2026-04-27 10:19 11.11037 -61.60187 11969 ft 253 kts 167°
2026-04-27 10:20 11.09272 -61.59849 11708 ft 262 kts 167°
2026-04-27 10:20 11.07461 -61.59504 11466 ft 268 kts 167°
2026-04-27 10:20 11.05616 -61.59150 11217 ft 271 kts 167°
2026-04-27 10:20 11.03770 -61.58798 10966 ft 265 kts 167°
2026-04-27 10:21 11.01991 -61.58471 10712 ft 254 kts 167°
2026-04-27 10:21 11.00276 -61.58160 10459 ft 247 kts 167°
2026-04-27 10:21 10.98607 -61.57851 10207 ft 241 kts 167°
2026-04-27 10:21 10.96967 -61.57549 9956 ft 238 kts 167°
2026-04-27 10:22 10.95369 -61.57246 9708 ft 237 kts 167°
2026-04-27 10:22 10.93732 -61.56936 9456 ft 240 kts 166°
2026-04-27 10:22 10.92083 -61.56620 9208 ft 242 kts 167°
2026-04-27 10:22 10.90423 -61.56305 8960 ft 243 kts 166°
2026-04-27 10:23 10.88757 -61.55986 8709 ft 244 kts 166°
2026-04-27 10:23 10.87081 -61.55666 8457 ft 245 kts 166°
2026-04-27 10:23 10.85406 -61.55346 8206 ft 245 kts 166°
2026-04-27 10:23 10.83754 -61.55030 7965 ft 244 kts 166°
2026-04-27 10:24 10.82079 -61.54711 7709 ft 245 kts 166°
2026-04-27 10:24 10.80407 -61.54393 7459 ft 244 kts 166°
2026-04-27 10:24 10.78733 -61.54073 7138 ft 246 kts 166°
2026-04-27 10:24 10.77029 -61.53749 6759 ft 250 kts 166°
2026-04-27 10:25 10.75310 -61.53422 6387 ft 249 kts 166°
2026-04-27 10:25 10.73652 -61.53105 6003 ft 241 kts 166°
2026-04-27 10:25 10.72026 -61.52793 5628 ft 234 kts 166°
2026-04-27 10:25 10.70445 -61.52493 5272 ft 229 kts 166°
2026-04-27 10:26 10.68878 -61.52218 4899 ft 227 kts 170°
2026-04-27 10:26 10.67290 -61.52161 4506 ft 229 kts 176°
2026-04-27 10:26 10.65691 -61.52196 4176 ft 228 kts 177°
2026-04-27 10:26 10.64115 -61.52238 3865 ft 226 kts 177°
2026-04-27 10:27 10.62535 -61.52274 3535 ft 226 kts 176°
2026-04-27 10:27 10.61052 -61.52017 3202 ft 204 kts 147°
2026-04-27 10:27 10.60205 -61.51066 2889 ft 172 kts 110°
2026-04-27 10:27 10.59833 -61.49963 2560 ft 160 kts 103°
2026-04-27 10:28 10.59620 -61.48891 2340 ft 153 kts 98°
2026-04-27 10:28 10.59509 -61.47839 2130 ft 147 kts 94°
2026-04-27 10:28 10.59471 -61.46810 1933 ft 144 kts 91°
2026-04-27 10:28 10.59467 -61.45798 1738 ft 142 kts 90°
2026-04-27 10:29 10.59472 -61.44815 1658 ft 136 kts 90°
2026-04-27 10:29 10.59484 -61.43923 1572 ft 117 kts 90°
2026-04-27 10:29 10.59497 -61.43161 1409 ft 100 kts 90°
2026-04-27 10:29 10.59514 -61.42483 1253 ft 98 kts 89°
2026-04-27 10:30 10.59530 -61.41762 1146 ft 102 kts 90°
2026-04-27 10:30 10.59538 -61.41049 1081 ft 103 kts 91°
2026-04-27 10:30 10.59542 -61.40301 1012 ft 108 kts 91°
2026-04-27 10:30 10.59545 -61.39547 937 ft 104 kts 91°
2026-04-27 10:31 10.59537 -61.38826 832 ft 102 kts 92°
2026-04-27 10:31 10.59519 -61.38117 711 ft 102 kts 90°
2026-04-27 10:31 10.59523 -61.37399 595 ft 101 kts 91°
2026-04-27 10:31 10.59523 -61.36682 472 ft 102 kts 90°
2026-04-27 10:32 10.59526 -61.35966 368 ft 101 kts 91°
2026-04-27 10:32 10.59531 -61.35243 245 ft 104 kts 90°
2026-04-27 10:32 10.59535 -61.34534 189 ft 91 kts 89°
2026-04-27 10:32 10.59537 -61.33982 187 ft 57 kts 90°
2026-04-27 10:33 10.59538 -61.33692 188 ft 29 kts 90°
2026-04-27 10:33 10.59545 -61.33534 187 ft 13 kts 64°
2026-04-27 10:33 10.59611 -61.33481 190 ft 11 kts 33°
2026-04-27 10:33 10.59669 -61.33453 198 ft 8 kts 355°
2026-04-27 10:34 10.59709 -61.33499 199 ft 11 kts 273°
2026-04-27 10:34 10.59710 -61.33606 200 ft 22 kts 271°
2026-04-27 10:34 10.59709 -61.33785 194 ft 26 kts 269°
2026-04-27 10:34 10.59709 -61.33969 194 ft 25 kts 269°
2026-04-27 10:35 10.59709 -61.34130 194 ft 20 kts 270°
2026-04-27 10:35 10.59757 -61.34177 200 ft 12 kts
2026-04-27 10:35 10.59914 -61.34177 206 ft 23 kts 359°
2026-04-27 10:35 10.60059 -61.34173 202 ft 19 kts 13°
2026-04-27 10:36 10.60119 -61.34094 202 ft 9 kts 63°
2026-04-27 10:36 10.60111 -61.34044 195 ft 6 kts 121°
2026-04-27 10:36 10.60090 -61.34029 204 ft 6 kts 153°
2026-04-27 10:36 10.60087 -61.34027 195 ft 0 kts 152°
2026-04-27 10:37 10.60087 -61.34026 195 ft 0 kts 148°